Date String (YYYY-MM-DD hh:mm:ss) UTC,Instrument flags,Ambient pressure (hPa),Sample flow (lpm),Bypass flow (lpm),Sample temperature (°C),Ambient temperature (°C),ASC tube jacket temperature (°C),LED temperature (°C),Box temperature (°C),Sample RH (%),Span deviation,Mass concentration (μg/m³),Mass concentration (μg/m³),Mass concentration (μg/m³)
DateTimeUTC,F1_M11,P_M11,Q1_M11,Q2_M11,T1_M11,T2_M11,T3_M11,T4_M11,T5_M11,U1_M11,ZSPAN_M11,X0_M11,X2_M11,X1_M11
2022-12-11 23:00:00,,0816.9,5.00,0.00,30.3,29.0,00.0,39.1,32.1,04.9,0000.0,0005.25,0002.49,0001.76
2022-12-11 23:01:00,,0816.9,5.01,0.00,30.3,29.0,00.0,39.1,32.1,04.9,0000.0,0005.52,0002.56,0001.81
2022-12-11 23:02:00,,0816.9,5.00,0.00,30.3,29.0,00.0,39.1,32.1,04.9,0000.0,0005.73,0002.63,0001.84
2022-12-11 23:03:00,,0817.1,5.00,0.00,30.3,29.0,00.0,39.1,32.1,04.9,0000.0,0005.76,0002.66,0001.87
2022-12-11 23:04:00,,0816.8,5.00,0.00,30.3,29.0,00.0,39.1,32.1,04.9,0000.0,0005.65,0002.63,0001.88
2022-12-11 23:05:00,,0816.7,5.01,0.00,30.3,29.0,00.0,39.1,32.1,04.9,0000.0,0005.71,0002.66,0001.91
2022-12-11 23:06:00,,0816.6,5.01,0.00,30.3,29.0,00.0,39.1,32.1,04.9,0000.0,0005.62,0002.66,0001.92
2022-12-11 23:07:00,,0816.7,4.99,0.00,30.3,29.0,00.0,39.1,32.1,04.9,0000.0,0005.55,0002.63,0001.93
2022-12-11 23:08:00,,0816.9,4.99,0.00,30.3,29.1,00.0,39.1,32.1,04.9,0000.0,0005.57,0002.61,0001.93
2022-12-11 23:09:00,,0816.8,5.00,0.00,30.3,29.1,00.0,39.1,32.1,04.9,0000.0,0005.45,0002.62,0001.93
2022-12-11 23:10:00,,0816.8,5.00,0.00,30.4,29.1,00.0,39.2,32.1,05.0,0000.0,0005.06,0002.70,0001.95
2022-12-11 23:11:00,,0816.6,5.00,0.00,30.4,29.1,00.0,39.2,32.1,05.0,0000.0,0005.73,0002.75,0001.97
2022-12-11 23:12:00,,0816.8,5.00,0.00,30.4,29.1,00.0,39.2,32.1,05.0,0000.0,0006.63,0002.72,0001.98
2022-12-11 23:13:00,,0816.7,5.00,0.00,30.4,29.0,00.0,39.2,32.1,05.0,0000.0,0007.33,0002.69,0001.98
2022-12-11 23:14:00,,0816.8,5.01,0.00,30.4,29.0,00.0,39.2,32.1,04.9,0000.0,0007.50,0002.71,0001.96
2022-12-11 23:15:00,,0817.1,5.01,0.00,30.4,29.0,00.0,39.2,32.1,04.9,0000.0,0007.69,0002.76,0001.94
2022-12-11 23:16:00,,0816.9,5.01,0.00,30.4,29.0,00.0,39.2,32.1,04.9,0000.0,0007.71,0002.75,0001.93
2022-12-11 23:17:00,,0817.1,5.00,0.00,30.4,29.0,00.0,39.2,32.1,05.0,0000.0,0007.79,0002.77,0001.95
2022-12-11 23:18:00,,0817.2,5.00,0.00,30.4,29.0,00.0,39.2,32.1,05.0,0000.0,0008.27,0002.85,0001.98
2022-12-11 23:19:00,,0816.9,5.00,0.00,30.4,29.0,00.0,39.2,32.1,05.0,0000.0,0008.75,0002.88,0002.01
2022-12-11 23:20:00,,0817.1,5.00,0.00,30.4,29.0,00.0,39.2,32.1,05.1,0000.0,0008.73,0002.97,0002.08
2022-12-11 23:21:00,,0816.8,5.00,0.00,30.4,28.9,00.0,39.2,32.0,05.2,0000.0,0008.78,0003.00,0002.09
2022-12-11 23:22:00,,0816.9,5.00,0.00,30.3,28.9,00.0,39.2,32.0,05.2,0000.0,0008.66,0002.96,0002.04
2022-12-11 23:23:00,,0816.8,5.01,0.00,30.3,28.9,00.0,39.2,32.0,05.2,0000.0,0009.12,0003.06,0002.01
2022-12-11 23:24:00,,0816.8,5.00,0.00,30.3,28.9,00.0,39.2,32.0,05.2,0000.0,0009.02,0003.08,0002.00
2022-12-11 23:25:00,,0816.7,4.99,0.00,30.3,28.9,00.0,39.2,32.0,05.3,0000.0,0009.08,0003.15,0002.10
2022-12-11 23:26:00,,0816.8,5.00,0.00,30.3,28.9,00.0,39.2,32.0,05.4,0000.0,0009.76,0003.23,0002.21
2022-12-11 23:27:00,,0816.9,5.00,0.00,30.3,28.9,00.0,39.2,32.0,05.5,0000.0,0010.17,0003.35,0002.38
2022-12-11 23:28:00,,0816.8,5.00,0.00,30.3,28.8,00.0,39.2,32.0,05.4,0000.0,0010.40,0003.47,0002.52
2022-12-11 23:29:00,,0816.8,5.00,0.00,30.3,28.8,00.0,39.2,32.0,05.3,0000.0,0010.76,0003.48,0002.51
2022-12-11 23:30:00,,0816.8,5.00,0.00,30.3,28.8,00.0,39.2,32.0,05.4,0000.0,0010.25,0003.52,0002.56
2022-12-11 23:31:00,,0816.8,5.00,0.00,30.3,28.8,00.0,39.2,32.0,05.4,0000.0,0010.38,0003.55,0002.60
2022-12-11 23:32:00,,0816.9,5.01,0.00,30.3,28.8,00.0,39.2,32.0,05.4,0000.0,0010.84,0003.59,0002.71
2022-12-11 23:33:00,,0816.9,5.00,0.00,30.3,28.8,00.0,39.2,32.0,05.4,0000.0,0010.92,0003.70,0002.92
2022-12-11 23:34:00,,0816.9,4.99,0.00,30.3,28.8,00.0,39.2,32.0,05.4,0000.0,0009.99,0003.71,0003.01
2022-12-11 23:35:00,,0816.9,5.00,0.00,30.3,28.8,00.0,39.2,32.0,05.5,0000.0,0009.71,0003.81,0003.15
2022-12-11 23:36:00,,0816.9,4.99,0.00,30.3,28.8,00.0,39.2,32.0,05.5,0000.0,0009.67,0003.85,0003.19
2022-12-11 23:37:00,,0816.9,5.00,0.00,30.2,28.7,00.0,39.2,31.9,05.5,0000.0,0009.18,0003.90,0003.24
2022-12-11 23:38:00,,0817.3,5.01,0.00,30.2,28.8,00.0,39.2,32.0,05.4,0000.0,0009.16,0003.93,0003.26
2022-12-11 23:39:00,,0817.1,5.00,0.00,30.2,28.8,00.0,39.2,32.0,05.3,0000.0,0009.02,0003.87,0003.24
2022-12-11 23:40:00,,0816.9,5.00,0.00,30.2,28.8,00.0,39.2,32.0,05.3,0000.0,0008.92,0003.91,0003.26
2022-12-11 23:41:00,,0816.9,5.00,0.00,30.2,28.8,00.0,39.2,32.0,05.3,0000.0,0009.93,0003.96,0003.31
2022-12-11 23:42:00,,0817.0,4.99,0.00,30.2,28.8,00.0,39.2,32.0,05.4,0000.0,0011.28,0003.99,0003.33
2022-12-11 23:43:00,,0817.0,5.00,0.00,30.3,28.8,00.0,39.2,32.0,05.4,0000.0,0011.04,0004.05,0003.36
2022-12-11 23:44:00,,0817.0,5.01,0.00,30.3,28.8,00.0,39.2,32.0,05.4,0000.0,0011.08,0004.07,0003.35
2022-12-11 23:45:00,,0817.1,4.99,0.00,30.3,28.8,00.0,39.2,32.0,05.4,0000.0,0011.78,0004.12,0003.39
2022-12-11 23:46:00,,0816.8,4.99,0.00,30.2,28.8,00.0,39.2,31.9,05.3,0000.0,0011.97,0004.06,0003.37
2022-12-11 23:47:00,,0816.9,5.00,0.00,30.2,28.8,00.0,39.2,32.0,05.3,0000.0,0012.15,0004.03,0003.31
2022-12-11 23:48:00,,0816.9,5.01,0.00,30.2,28.7,00.0,39.2,32.0,05.3,0000.0,0012.36,0003.91,0003.21
2022-12-11 23:49:00,,0817.0,5.00,0.00,30.2,28.7,00.0,39.1,32.0,05.3,0000.0,0011.87,0003.79,0003.10
2022-12-11 23:50:00,,0816.9,5.00,0.00,30.2,28.7,00.0,39.1,32.0,05.2,0000.0,0011.75,0003.73,0002.96
2022-12-11 23:51:00,,0816.9,5.00,0.00,30.2,28.7,00.0,39.1,31.9,05.2,0000.0,0011.44,0003.62,0002.82
2022-12-11 23:52:00,,0816.9,5.01,0.00,30.2,28.6,00.0,39.1,31.9,05.2,0000.0,0010.39,0003.49,0002.66
2022-12-11 23:53:00,,0816.9,5.00,0.00,30.2,28.6,00.0,39.1,31.8,05.2,0000.0,0009.18,0003.38,0002.48
2022-12-11 23:54:00,,0817.0,5.00,0.00,30.2,28.6,00.0,39.1,31.8,05.2,0000.0,0009.27,0003.25,0002.28
2022-12-11 23:55:00,,0817.0,5.00,0.00,30.1,28.6,00.0,39.1,31.8,05.2,0000.0,0008.89,0003.05,0002.08
2022-12-11 23:56:00,,0817.0,5.00,0.00,30.1,28.5,00.0,39.1,31.8,05.2,0000.0,0008.43,0002.77,0001.84
2022-12-11 23:57:00,,0817.0,4.99,0.00,30.1,28.5,00.0,39.1,31.8,05.3,0000.0,0008.61,0002.57,0001.65
2022-12-11 23:58:00,,0817.0,5.00,0.00,30.1,28.5,00.0,39.1,31.8,05.3,0000.0,0009.24,0002.45,0001.55
2022-12-11 23:59:00,,0817.0,5.00,0.00,30.1,28.5,00.0,39.1,31.8,05.3,0000.0,0008.90,0002.38,0001.52
